Aérodrome :
LOGIN :

S'inscrire | Disclaimer

   EN    FR    IT 

 










Légende :    VFR   VFR Marginal   IFR   IFR Intensif   IFR Très Intensif
Visi : 
Plafond : 
>= 8 km
>= 3000ft
5 à 8 km
1000 à 3000 ft
1500m à 5 km
500 à 1000 ft
800 à 1500m
200 à 500 ft
< 800m
< 200 ft
Symboles :   Orages  Brouillard  Fortes neiges  Fortes précipitations  Vent > 20 kt
SIGMETs :   Divers  Orages  Givrage  Turbulence  Onde Orograph.  Cendres Volcan.







- Altitude de l'aérodrome : 1000 ft
- Code IATA : PEV


LHPP - Pécs Pogany

DERNIER METAR :
  • 181015Z 22002KT CAVOK 22/13 Q1019

METARs EXPIRÉS :
  • 180945Z 20002KT CAVOK 22/13 Q1020
  • 180915Z 20001KT CAVOK 20/12 Q1020
  • 180845Z 14002KT CAVOK 19/13 Q1020
  • 180815Z 16001KT CAVOK 19/12 Q1020
  • 180745Z 12001KT CAVOK 17/12 Q1020

TAF TAF LHPP
Valide du 18 à 09h jusqu'au 18 à 18h UTC


180815Z 1809/1818 VRB01KT CAVOK
BECMG 1809/1811 21006KT
Pas de NOTAMs connus pour ce terrain.



MET'MAP, la Météo Aéronautique d'un coup d'oeil ! - Copyright ORBIFLY Décembre 2007 - Disclaimer

ORBIFLY MET'MAP TEAM :

Programmation & Développement : Alexandra Zaïnal
Conception & Développement : Baudouin d'Aumeries
Co-Programmation & Développement : Marc-Olivier Méhu
Soutien technique & logistique : Manuel Goepfert

Contact : metmap@orbifly.com




SOURCES & CREDITS :

   NOAA